Weather in Gävle

Sweden     60°40′07″N   17°08′03″E
temp.,
°C
wind,
m/s
gust,
m/s
humid.,
%
clouds,
%
prec.,
mm/h
press.,
hPa
HPBL,
m
11 april, sun
sun1123:00+2wsw34600 0.0 101149
02:00+1wnw22690 0.0 101415
05:000w11720 0.0 101610
08:00+3sse12610 0.0 1019115
11:00+4ese335485 0.0 1020486
14:00+4ene5562100 0.0 1021322
17:00+3e5872100 0.0 1020230
20:00+4ese5971100 0.0 1020227
12 april, mon
mon1223:00+2e5990100 0.0 1020406
02:00+1ne61298100 1.5 1018452
05:00+1ne81499100 3.9 1015515
08:000nne81499100 11.8 1012497
11:00+1nne71398100 5.6 1011442
14:00+1n61098100 5.8 1012547
17:00+1nnw4898100 0.1 1013603
20:00+1nnw3998100 0.6 1014664
13 april, tue
tue1323:00+1w2499100 0.5 1015306
02:00+1w2399100 0.8 1015135
05:00−1w239998 0.1 101490
08:00+1wnw349391 0.3 1015365
11:00+3wnw3577100 0.2 1016720
14:00+4nw476993 0.6 1017838
17:00+4nw4673100 0.6 1019701
20:00+1w228698 0.8 102218
14 april, wed
wed1423:00−1wnw37845 0.0 1024137
02:00−1wnw411773 0.0 1026320
05:00−1wnw411783 0.0 1027312
08:00+1nw410690 0.0 1029450
11:00+4nnw34604 0.0 1030815
14:00+6nnw13575 0.0 1031943
17:00+6nw14615 0.0 1030774
20:00+4w22742 0.0 103112
15 april, thu
thu1523:00+2w34830 0.0 103260
02:00+1nw34830 0.0 103363
05:00+1nw35790 0.0 103369
08:00+4nw38682 0.0 1035210
11:00+7n47605 0.0 1036638
14:00+8nne466079 0.0 10361020
17:00+6ne367266 0.0 1037272
20:00+4n228610 0.0 103812